Location: Boiro
(42.6475°N, 8.8834°W)
Time: 01:07:04
(UTC+01:00)

Tiros 1 - Pass Details

Date: 07 December 2021
Orbit: 629 x 664 km, 48.4° (Epoch: 26 January)

Event Time Altitude Azimuth Distance (km) Brightness Sun altitude
Rises 19:18:37 0° 244° (WSW) 2,909 12.4 -13.6°
Reaches altitude 10° 19:20:55 10° 245° (WSW) 2,006 11.1 -14.0°
Maximum altitude 19:25:33 84° 334° (NNW) 642 7.1 -14.9°
Enters shadow 19:28:13 26° 61° (ENE) 1,272 8.1 -15.3°
